Regional Weather Roundup
Issued by NWS

Home | Current Version | Previous Version | Graphics & Text | Print | Product List | Glossary On
Versions: 1 2 3 4 5 6 7 8 9 10 11 12 13 14 15 16 17 18 19 20 21 22 23 24 25 26 27 28 29 30 31 32 33 34 35 36 37 38 39 40 41 42 43 44 45 46 47 48 49 50
000
ASUS45 KTFX 131019
RWRMT
MONTANA HOURLY WEATHER ROUNDUP
NATIONAL WEATHER SERVICE GREAT FALLS MT
419 AM MDT SUN JUL 13 2014

NOTE: "FAIR" INDICATES FEW OR NO CLOUDS BELOW 12000 FEET WITH NO
SIGNIFICANT WEATHER AND/OR OBSTRUCTIONS TO VISIBILITY.

* THESE STATIONS ARE NOT UNDER NWS QUALITY CONTROL. THEY DO NOT
   REPORT WEATHER SUCH AS PRECIPITATION OR FOG.

MTZ001>007-043-131100-
WEST OF THE DIVIDE
CITY           SKY/WX    TMP DP  RH WIND       PRES   REMARKS
KALISPELL      CLEAR     54  48  80 CALM      30.18R
MISSOULA       CLEAR     61  45  56 CALM      30.21R
MULLAN PASS    CLEAR     66  34  31 SE6       30.36S
* ESSEX        N/A       59  46  62 S17        N/A
* LINCOLN      N/A       48  42  80 N1         N/A
* LOOKOUT PASS N/A       60  46  60 N/A        N/A
* POLSON       N/A       63  42  46 NE2        N/A
* RONAN APT    CLEAR     55  48  77 N/A        N/A
* SEELEY LAKE  N/A       48  43  83 NE1        N/A
* THOMP F APT  CLEAR     56  43  62 N5         N/A
* YAAK HILL    N/A       59  46  62 N1         N/A
$$

MTZ008-052>055-131100-
SOUTHWEST MONTANA
CITY           SKY/WX    TMP DP  RH WIND       PRES   REMARKS
W YELLOWSTONE  CLEAR     45  43  93 CALM      30.44S
* THREE FORKS  PTCLDY    57  37  47 N/A        N/A
* BOULDER HILL N/A       60  38  44 SW1        N/A
* MONIDA PASS  N/A       52  46  80 W3         N/A
* RAYNOLDS PAS N/A       50  38  64 SW1        N/A
* WHITEHALL    N/A       59  53  81 N/A        N/A
* WISE RIVER   N/A       52  49  90 SW3        N/A
$$

MTZ009>010-012-014-046-048-049-054-131100-
EAST SLOPES AND CENTRAL MONTANA
CITY           SKY/WX    TMP DP  RH WIND       PRES   REMARKS
MALMSTROM AFB  CLEAR     57  46  67 S3        30.24S
* CONRAD       CLEAR     48  48 100 N/A        N/A
* DEARBORN     N/A       56  43  62 SW3        N/A
* MONARCH      N/A       53  34  49 E4G9       N/A
* PENDROY      N/A       54  46  74 W2         N/A
* SAINT MARY   N/A       47  45  93 S3         N/A
* SWEET GRASS  N/A       61  50  67 W10        N/A
* WHITE SULPH  N/A       56  39  53 E2G9       N/A
$$

MTZ011-013-016-021-035-040-045-047-050-051-131100-
NORTH CENTRAL MONTANA
CITY           SKY/WX    TMP DP  RH WIND       PRES   REMARKS
* FORT BENTON  CLEAR     57  46  67 CALM      30.22R
* CHESTER      N/A       55  47  75 N3         N/A
* DENTON       N/A       51  44  77 N/A        N/A
* GEYSER       N/A       51  42  71 S7         N/A
* JUDITH GAP   N/A       58  46  65 SW1G6      N/A
* LOMA         N/A       60  47  62 N4         N/A
$$

MTZ017>020-022>027-061-062-131100-
NORTHEAST MONTANA
CITY           SKY/WX    TMP DP  RH WIND       PRES   REMARKS
GLENDIVE       CLEAR     59  46  62 NW12      30.17R
JORDAN         CLEAR     54  45  72 W3        30.19R
SIDNEY         CLEAR     57  50  78 NW8       30.17R
* BEAVER HILL  N/A       58  47  67 SW4        N/A
* CIRCLE       N/A       55  50  83 N/A        N/A
* LINDSAY DVD  N/A       56  48  75 NW7        N/A
* NAVAJO       N/A       53  46  77 NW9        N/A
$$

MTZ028>042-056>058-131100-
SOUTHCENTRAL AND SOUTHEAST MONTANA
CITY           SKY/WX    TMP DP  RH WIND       PRES   REMARKS
BILLINGS       CLEAR     64  43  47 N3        30.23F
* LAUREL APT   CLEAR     61  39  44 N/A        N/A
* ROUNDUP APT  CLEAR     59  43  56 W5         N/A
* ALZADA       N/A       55  48  77 NW1        N/A
* HYSHAM       N/A       67  41  39 SE3        N/A
* LAME DEER    N/A       65  44  47 SE4        N/A
* REED POINT   N/A       55  51  86 E2         N/A
* ROSCOE HILL  N/A       61  42  50 W1         N/A
$$

REGIONAL REPORTS...DAKOTAS
CITY           SKY/WX    TMP DP  RH WIND       PRES   REMARKS
WILLISTON      CLEAR     57  45  64 N8        30.13R
DICKINSON      CLEAR     54  48  80 W7        30.11S
CROSBY         N/A       50  50 100 NW10      30.14R
TIOGA          CLEAR     50  50 100 N10       30.15S
WATFORD CITY   CLEAR     50  48  93 W3        30.11S
BISMARCK       CLEAR     57  54  90 NW6       30.07R
GRAND FORKS    CLEAR     54  52  93 W8        29.93S
FARGO          CLEAR     54  52  93 W6        29.96S
BUFFALO SD     CLEAR     55  48  77 W8        30.12S
RAPID CITY     CLEAR     63  55  75 NW9       30.19S
$$

REGIONAL REPORTS...WYOMING/IDAHO/WASHINGTON
CITY           SKY/WX    TMP DP  RH WIND       PRES   REMARKS
GILLETTE       PTCLDY    55  46  72 CALM      30.26F
CODY           CLEAR     63  52  68 SW9       30.31R
YELLOWSTONE LA CLEAR     41  39  93 CALM      30.53S
MULLAN PASS    CLEAR     66  34  31 SE6       30.36S
SAND POINT     CLEAR     55  52  90 CALM      30.14R
SPOKANE        CLEAR     68  45  44 CALM      30.13R
$$

REGIONAL REPORTS...ALBERTA
CITY           SKY/WX    TMP DP  RH WIND       PRES   REMARKS
CALGARY        N/A       59  48  67 VRB3      30.25S
LETHBRIDGE     CLEAR     55  54  96 SW8       30.24S
MEDICINE HAT   CLEAR     57  52  83 CALM      30.20S
EDMONTON       FAIR      55  52  90 SE7       30.21R
WATERTON GATE  N/A       54  50  86 SW7        N/A
CARDSTON       N/A       52  50  93 SE1        N/A
MILK RIVER     N/A       54  50  86 W8         N/A
$$

REGIONAL REPORTS...SASKATCHEWAN
CITY           SKY/WX    TMP DP  RH WIND       PRES   REMARKS
SWIFT CURRENT  MOCLDY    52  50  93 SW8       30.21S
REGINA         N/A       46  43  89 W9        30.14S
VAL MARIE      N/A       52  50  93 N5         N/A
ASSINIBOIA     N/A       50  45  83 NW7        N/A
CORONACH       N/A       46  43  89 NW3        N/A

$$



USA.gov is the U.S. government's official web portal to all federal, state and local government web resources and services.